| time (UTC) | temp C | wind direction | speed KPH | gust KPH | rain 1hr cm | rain 24hr cm | rain mn cm | humidity % | barometer mb |
| 20260509222632 | 12 | 172 | 4.8 | 4.8 | 0.00 | 0.53 | 0.53 | 85 | 1005.7 |
| 20260509221630 | 12 | 186 | 6.4 | 9.7 | 0.00 | 0.53 | 0.53 | 85 | 1005.7 |
| 20260509220627 | 11 | 185 | 6.4 | 8.0 | 0.00 | 0.53 | 0.53 | 87 | 1006.1 |
| 20260509215626 | 11 | 197 | 4.8 | 4.8 | 0.00 | 0.53 | 0.53 | 89 | 1006.1 |
| 20260509214626 | 10 | 185 | 6.4 | 9.7 | 0.00 | 0.53 | 0.53 | 90 | 1006.2 |
| 20260509213625 | 10 | 202 | 4.8 | 8.0 | 0.00 | 0.53 | 0.53 | 89 | 1006.2 |
| 20260509212625 | 10 | 216 | 4.8 | 11.3 | 0.00 | 0.53 | 0.53 | 91 | 1006.4 |
| 20260509211623 | 9 | 200 | 8.0 | 9.7 | 0.00 | 0.53 | 0.53 | 92 | 1006.5 |
| 20260509210622 | 9 | 200 | 12.9 | 22.5 | 0.13 | 0.53 | 0.53 | 92 | 1007.3 |
| 20260509205619 | 10 | 191 | 6.4 | 9.7 | 0.89 | 0.53 | 0.53 | 94 | 1006.5 |
| 20260509204617 | 12 | 192 | 16.1 | 24.1 | 0.79 | 0.38 | 0.38 | 92 | 1007.3 |
| 20260509203615 | 13 | 211 | 11.3 | 16.1 | 0.00 | 0.25 | 0.25 | 86 | 1005.9 |
| 20260509202614 | 13 | 193 | 11.3 | 14.5 | 0.00 | 0.25 | 0.25 | 85 | 1005.6 |
| 20260509201610 | 13 | 197 | 17.7 | 24.1 | 0.00 | 0.25 | 0.25 | 84 | 1005.7 |
| 20260509200608 | 13 | 171 | 16.1 | 24.1 | 0.00 | 0.25 | 0.25 | 85 | 1005.8 |
| 20260509195606 | 13 | 187 | 22.5 | 37.0 | 0.00 | 0.25 | 0.25 | 84 | 1005.8 |
| 20260509194606 | 13 | 174 | 9.7 | 20.9 | 0.00 | 0.25 | 0.25 | 83 | 1005.5 |
| 20260509193606 | 13 | 185 | 12.9 | 24.1 | 0.00 | 0.25 | 0.25 | 82 | 1005.6 |
| 20260509192605 | 14 | 196 | 14.5 | 24.1 | 0.00 | 0.25 | 0.25 | 81 | 1006.0 |
| 20260509191600 | 14 | 198 | 14.5 | 22.5 | 0.00 | 0.25 | 0.25 | 82 | 1005.9 |
| 20260509190559 | 13 | 135 | 9.7 | 22.5 | 0.00 | 0.25 | 0.25 | 84 | 1006.0 |
| 20260509185554 | 13 | 203 | 6.4 | 8.0 | 0.00 | 0.25 | 0.25 | 87 | 1006.3 |
| 20260509184549 | 12 | 184 | 8.0 | 11.3 | 0.00 | 0.25 | 0.25 | 89 | 1006.6 |
| 20260509183546 | 12 | 200 | 11.3 | 14.5 | 0.00 | 0.25 | 0.25 | 88 | 1007.0 |
| 20260509182544 | 12 | 168 | 9.7 | 14.5 | 0.00 | 0.25 | 0.25 | 89 | 1006.7 |
| 20260509181540 | 12 | 207 | 9.7 | 16.1 | 0.00 | 0.25 | 0.25 | 89 | 1006.7 |
| 20260509180538 | 13 | 180 | 19.3 | 33.8 | 0.00 | 0.25 | 0.25 | 87 | 1006.3 |
| 20260509175536 | 13 | 211 | 9.7 | 16.1 | 0.00 | 0.25 | 0.25 | 87 | 1006.5 |
| 20260509174536 | 13 | 210 | 14.5 | 20.9 | 0.00 | 0.25 | 0.25 | 84 | 1006.7 |
| 20260509173532 | 13 | 214 | 14.5 | 37.0 | 0.00 | 0.25 | 0.25 | 83 | 1006.4 |
| 20260509172531 | 14 | 209 | 14.5 | 20.9 | 0.00 | 0.25 | 0.25 | 83 | 1006.8 |
| 20260509171529 | 13 | 268 | 8.0 | 11.3 | 0.00 | 0.25 | 0.25 | 82 | 1007.0 |
| 20260509170527 | 12 | 202 | 3.2 | 8.0 | 0.00 | 0.25 | 0.25 | 86 | 1007.3 |
| 20260509165527 | 12 | 201 | 20.9 | 25.7 | 0.00 | 0.25 | 0.25 | 86 | 1007.6 |
| 20260509164525 | 12 | 207 | 17.7 | 32.2 | 0.00 | 0.25 | 0.25 | 85 | 1007.7 |
| 20260509163525 | 12 | 172 | 16.1 | 22.5 | 0.00 | 0.25 | 0.25 | 83 | 1007.6 |
| 20260509162524 | 12 | 208 | 16.1 | 25.7 | 0.00 | 0.25 | 0.25 | 86 | 1008.2 |
| 20260509161521 | 13 | 195 | 9.7 | 12.9 | 0.00 | 0.25 | 0.25 | 85 | 1008.1 |
| 20260509160517 | 13 | 212 | 6.4 | 9.7 | 0.00 | 0.25 | 0.25 | 84 | 1008.7 |
| 20260509155515 | 13 | 167 | 9.7 | 16.1 | 0.00 | 0.25 | 0.25 | 83 | 1008.3 |
| 20260509154514 | 12 | 199 | 20.9 | 32.2 | 0.00 | 0.25 | 0.25 | 84 | 1007.9 |
| 20260509153514 | 12 | 176 | 20.9 | 29.0 | 0.00 | 0.25 | 0.25 | 85 | 1008.3 |
| 20260509152512 | 12 | 192 | 20.9 | 25.7 | 0.00 | 0.25 | 0.25 | 89 | 1008.7 |
| 20260509151511 | 12 | 186 | 9.7 | 16.1 | 0.00 | 0.25 | 0.25 | 90 | 1008.6 |
| 20260509150506 | 12 | 200 | 8.0 | 12.9 | 0.00 | 0.25 | 0.25 | 89 | 1008.6 |
| 20260509145506 | 12 | 200 | 9.7 | 16.1 | 0.00 | 0.25 | 0.25 | 91 | 1008.7 |
| 20260509144504 | 12 | 183 | 32.2 | 37.0 | 0.00 | 0.25 | 0.25 | 88 | 1008.7 |
| 20260509143504 | 12 | 196 | 22.5 | 25.7 | 0.00 | 0.25 | 0.25 | 88 | 1008.6 |
| 20260509142503 | 12 | 179 | 11.3 | 20.9 | 0.00 | 0.25 | 0.25 | 90 | 1008.6 |
| 20260509141501 | 11 | 210 | 8.0 | 11.3 | 0.00 | 0.25 | 0.25 | 91 | 1008.7 |
| 20260509140500 | 11 | 188 | 12.9 | 16.1 | 0.00 | 0.25 | 0.25 | 92 | 1008.4 |
| 20260509135456 | 11 | 178 | 4.8 | 8.0 | 0.00 | 0.25 | 0.25 | 96 | 1008.6 |
| 20260509134451 | 10 | 193 | 4.8 | 12.9 | 0.00 | 0.25 | 0.25 | 99 | 1008.6 |
| 20260509133450 | 10 | 184 | 11.3 | 14.5 | 0.00 | 0.25 | 0.25 | 99 | 1008.8 |
| 20260509132446 | 10 | 175 | 12.9 | 17.7 | 0.00 | 0.25 | 0.25 | 99 | 1008.7 |
| 20260509131446 | 10 | 187 | 14.5 | 22.5 | 0.00 | 0.25 | 0.25 | 99 | 1008.9 |
| 20260509130444 | 10 | 189 | 19.3 | 22.5 | 0.00 | 0.25 | 0.25 | 99 | 1008.8 |
| 20260509125444 | 10 | 143 | 9.7 | 17.7 | 0.00 | 0.25 | 0.25 | 99 | 1008.8 |
| 20260509124443 | 10 | 187 | 9.7 | 12.9 | 0.00 | 0.25 | 0.25 | 99 | 1009.0 |
| 20260509123443 | 10 | 195 | 9.7 | 11.3 | 0.00 | 0.25 | 0.25 | 99 | 1009.1 |
| 20260509122442 | 10 | 205 | 6.4 | 9.7 | 0.00 | 0.25 | 0.25 | 99 | 1008.9 |
| 20260509121441 | 10 | 163 | 17.7 | 20.9 | 0.00 | 0.25 | 0.25 | 99 | 1009.2 |
| 20260509120437 | 9 | 190 | 1.6 | 3.2 | 0.00 | 0.25 | 0.25 | 99 | 1009.3 |
| 20260509115432 | 9 | 196 | 4.8 | 8.0 | 0.00 | 0.25 | 0.25 | 99 | 1009.2 |
| 20260509114428 | 9 | 189 | 11.3 | 16.1 | 0.00 | 0.25 | 0.25 | 99 | 1009.0 |
| 20260509113424 | 9 | 175 | 8.0 | 11.3 | 0.00 | 0.25 | 0.25 | 99 | 1009.1 |
| 20260509112424 | 9 | 156 | 0.0 | 1.6 | 0.00 | 0.25 | 0.25 | 99 | 1008.9 |
| 20260509111424 | -17 | 0.0 | 0.0 | 0.00 | 0.00 | 0.00 | 1009.1 | ||
| 20260509110423 | -17 | 0.0 | 0.0 | 0.00 | 0.00 | 0.00 | 1009.3 | ||
| 20260509105420 | -17 | 0.0 | 0.0 | 0.00 | 0.00 | 0.00 | 1009.1 | ||
| 20260509104419 | -17 | 0.0 | 0.0 | 0.00 | 0.00 | 0.00 | 1009.1 | ||
| 20260509103419 | -17 | 0.0 | 0.0 | 0.00 | 0.00 | 0.00 | 1009.1 | ||
| 20260509102415 | 8 | 196 | 8.0 | 11.3 | 0.00 | 0.25 | 0.25 | 99 | 1009.3 |
| 20260509101413 | 8 | 190 | 3.2 | 4.8 | 0.00 | 0.25 | 0.25 | 99 | 1009.3 |
| 20260509100413 | -17 | 0.0 | 0.0 | 0.00 | 0.00 | 0.00 | 1009.1 | ||
| 20260509095413 | 8 | 195 | 0.0 | 1.6 | 0.00 | 0.25 | 0.25 | 98 | 1009.3 |
| 20260509094412 | 8 | 202 | 1.6 | 4.8 | 0.00 | 0.25 | 0.25 | 98 | 1009.4 |
| 20260509093407 | 8 | 202 | 3.2 | 12.9 | 0.00 | 0.25 | 0.25 | 98 | 1009.5 |
| 20260509092403 | 8 | 178 | 0.0 | 1.6 | 0.00 | 0.25 | 0.25 | 98 | 1009.4 |
| 20260509091403 | 8 | 228 | 0.0 | 0.0 | 0.00 | 0.25 | 0.25 | 97 | 1009.6 |
| 20260509090358 | 8 | 208 | 0.0 | 0.0 | 0.00 | 0.25 | 0.25 | 97 | 1009.6 |
| 20260509085358 | 8 | 197 | 0.0 | 0.0 | 0.00 | 0.25 | 0.25 | 97 | 1009.6 |
| 20260509084357 | 8 | 203 | 0.0 | 0.0 | 0.00 | 0.25 | 0.25 | 97 | 1009.8 |
| 20260509083357 | 8 | 227 | 0.0 | 0.0 | 0.00 | 0.25 | 0.25 | 97 | 1010.1 |
| 20260509082356 | 8 | 180 | 0.0 | 1.6 | 0.00 | 0.25 | 0.25 | 97 | 1010.1 |
| 20260509081356 | 8 | 192 | 3.2 | 9.7 | 0.00 | 0.25 | 0.25 | 96 | 1009.9 |
| 20260509080352 | 8 | 191 | 0.0 | 1.6 | 0.00 | 0.25 | 0.25 | 96 | 1009.8 |
| 20260509075352 | 8 | 182 | 0.0 | 0.0 | 0.00 | 0.25 | 0.25 | 96 | 1009.9 |
| 20260509074347 | 8 | 213 | 0.0 | 0.0 | 0.00 | 0.25 | 0.25 | 95 | 1010.2 |
| 20260509073346 | 8 | 112 | 1.6 | 4.8 | 0.00 | 0.25 | 0.25 | 95 | 1010.2 |
| 20260509072344 | 9 | 214 | 0.0 | 0.0 | 0.00 | 0.25 | 0.25 | 95 | 1010.4 |
| 20260509071344 | 8 | 152 | 0.0 | 0.0 | 0.00 | 0.25 | 0.25 | 94 | 1010.1 |
| 20260509070344 | 8 | 221 | 0.0 | 0.0 | 0.13 | 0.25 | 0.25 | 93 | 1010.2 |
| 20260509065342 | 8 | 187 | 1.6 | 4.8 | 0.61 | 0.23 | 0.23 | 94 | 1010.8 |
| 20260509064342 | 8 | 164 | 4.8 | 8.0 | 0.79 | 0.13 | 0.13 | 91 | 1011.0 |
| 20260509063341 | -17 | 0.0 | 0.0 | 0.00 | 0.00 | 0.00 | 1011.1 | ||
| 20260509062341 | 8 | 195 | 0.0 | 0.0 | 0.00 | 0.00 | 0.00 | 84 | 1011.2 |
| 20260509061337 | 8 | 200 | 0.0 | 0.0 | 0.00 | 0.00 | 0.00 | 80 | 1011.2 |
| 20260509060336 | 8 | 200 | 0.0 | 0.0 | 0.00 | 0.00 | 0.00 | 78 | 1011.2 |
| 20260509055332 | 8 | 161 | 0.0 | 0.0 | 0.00 | 0.00 | 0.00 | 76 | 1010.8 |
| 20260509054332 | 8 | 139 | 0.0 | 0.0 | 0.00 | 0.00 | 0.00 | 75 | 1011.3 |
| 20260509053327 | 8 | 145 | 1.6 | 3.2 | 0.00 | 0.00 | 0.00 | 74 | 1011.2 |
| 20260509052323 | 7 | 136 | 4.8 | 8.0 | 0.00 | 0.00 | 0.00 | 74 | 1011.3 |
| 20260509051319 | 7 | 173 | 0.0 | 1.6 | 0.00 | 0.00 | 0.00 | 74 | 1011.7 |
| 20260509050317 | 7 | 153 | 1.6 | 3.2 | 0.00 | 0.00 | 0.00 | 74 | 1011.8 |
| 20260509045316 | 7 | 191 | 1.6 | 3.2 | 0.00 | 0.00 | 0.00 | 73 | 1011.7 |
| 20260509044311 | 7 | 161 | 1.6 | 3.2 | 0.00 | 0.00 | 0.00 | 73 | 1011.9 |
| 20260509043309 | 7 | 153 | 0.0 | 0.0 | 0.00 | 0.00 | 0.00 | 73 | 1011.9 |
| 20260509042308 | 7 | 193 | 0.0 | 0.0 | 0.00 | 0.00 | 0.00 | 73 | 1011.8 |
| 20260509041307 | 8 | 196 | 0.0 | 1.6 | 0.00 | 0.00 | 0.00 | 72 | 1012.2 |
| 20260509040302 | 8 | 144 | 0.0 | 0.0 | 0.00 | 0.00 | 0.00 | 70 | 1012.2 |
| 20260509035305 | 8 | 191 | 0.0 | 0.0 | 0.00 | 0.00 | 0.00 | 70 | 1012.4 |
| 20260509034302 | 8 | 165 | 1.6 | 3.2 | 0.00 | 0.00 | 0.00 | 68 | 1012.2 |
| 20260509033302 | 8 | 172 | 1.6 | 3.2 | 0.00 | 0.00 | 0.00 | 67 | 1012.6 |
| 20260509032306 | 8 | 184 | 3.2 | 4.8 | 0.00 | 0.00 | 0.00 | 65 | 1012.3 |
| 20260509031257 | 8 | 152 | 0.0 | 0.0 | 0.00 | 0.00 | 0.00 | 64 | 1012.4 |
| 20260509030252 | 8 | 200 | 1.6 | 3.2 | 0.00 | 0.00 | 0.00 | 65 | 1012.4 |
| 20260509025250 | 8 | 145 | 3.2 | 4.8 | 0.00 | 0.00 | 0.00 | 65 | 1012.6 |
| 20260509024248 | 8 | 145 | 6.4 | 9.7 | 0.00 | 0.00 | 0.00 | 64 | 1012.6 |
| 20260509023248 | 9 | 160 | 0.0 | 0.0 | 0.00 | 0.00 | 0.00 | 64 | 1012.8 |
| 20260509022248 | 9 | 146 | 0.0 | 0.0 | 0.00 | 0.00 | 0.00 | 64 | 1012.7 |
| 20260509021248 | 9 | 163 | 0.0 | 0.0 | 0.00 | 0.00 | 0.00 | 65 | 1012.6 |
| 20260509020243 | 9 | 139 | 0.0 | 1.6 | 0.00 | 0.00 | 0.00 | 65 | 1012.6 |
| 20260509015239 | 9 | 179 | 0.0 | 0.0 | 0.00 | 0.00 | 0.00 | 64 | 1012.6 |
| 20260509014238 | 10 | 210 | 0.0 | 0.0 | 0.00 | 0.00 | 0.00 | 63 | 1012.3 |
| 20260509013236 | 10 | 186 | 0.0 | 0.0 | 0.00 | 0.00 | 0.00 | 62 | 1012.4 |
| 20260509012235 | 10 | 148 | 0.0 | 0.0 | 0.00 | 0.00 | 0.00 | 62 | 1012.2 |
| 20260509011230 | 10 | 151 | 0.0 | 0.0 | 0.00 | 0.00 | 0.00 | 61 | 1012.3 |
| 20260509010230 | 10 | 172 | 0.0 | 0.0 | 0.00 | 0.00 | 0.00 | 60 | 1012.2 |
| 20260509005225 | 10 | 153 | 0.0 | 3.2 | 0.00 | 0.00 | 0.00 | 59 | 1012.0 |
| 20260509004223 | 10 | 188 | 4.8 | 8.0 | 0.00 | 0.00 | 0.00 | 59 | 1012.2 |
| 20260509003218 | 10 | 205 | 6.4 | 8.0 | 0.00 | 0.00 | 0.00 | 58 | 1012.0 |
| 20260509002213 | 10 | 174 | 11.3 | 12.9 | 0.00 | 0.00 | 0.00 | 58 | 1012.1 |
| 20260509001212 | 11 | 194 | 3.2 | 9.7 | 0.00 | 0.00 | 0.00 | 57 | 1012.1 |
| 20260509000207 | 11 | 162 | 8.0 | 11.3 | 0.00 | 0.00 | 0.00 | 54 | 1011.9 |
| 20260508235206 | 11 | 169 | 8.0 | 11.3 | 0.00 | 0.00 | 0.00 | 53 | 1012.0 |
| 20260508234206 | 11 | 176 | 14.5 | 16.1 | 0.00 | 0.00 | 0.00 | 52 | 1012.0 |
| 20260508233203 | 11 | 169 | 12.9 | 14.5 | 0.00 | 0.00 | 0.00 | 51 | 1011.9 |
| 20260508232202 | 11 | 203 | 11.3 | 14.5 | 0.00 | 0.00 | 0.00 | 50 | 1011.9 |
| 20260508231157 | 12 | 204 | 8.0 | 11.3 | 0.00 | 0.00 | 0.00 | 50 | 1011.8 |
| 20260508230156 | 12 | 205 | 19.3 | 24.1 | 0.00 | 0.00 | 0.00 | 51 | 1011.9 |
| 20260508225155 | 12 | 213 | 8.0 | 11.3 | 0.00 | 0.00 | 0.00 | 49 | 1011.9 |
| 20260508224151 | 12 | 149 | 4.8 | 16.1 | 0.00 | 0.00 | 0.00 | 50 | 1011.9 |
| 20260508223146 | 12 | 191 | 8.0 | 11.3 | 0.00 | 0.00 | 0.00 | 51 | 1012.0 |